• în România
  • Lista ţărilor
  • Pe 7 zile
  • Temperatura apei
  • Hartă satelitară
  • Meteo pe hartă
  • Widget-uri
  • user-avatar
    Intrare

    Meteo pe oră la Stepanakert

    Astăzi, 18 Ianuarie, Miercuri

    Timp Temperatura Precipitaţii Vânt Presiune Umiditate
    00:00 0°C° 0 mm 1 m/s 696 mmHg 85%
    01:00 0°C° 0 mm 1 m/s 695 mmHg 86%
    02:00 0°C° 0 mm 1 m/s 695 mmHg 87%
    03:00 0°C° 0 mm 1 m/s 695 mmHg 87%
    04:00 0°C° 0 mm 1 m/s 695 mmHg 87%
    05:00 -1°C° 0 mm 1 m/s 695 mmHg 88%
    06:00 -2°C° 0 mm 0 m/s 695 mmHg 89%
    07:00 0°C° 0 mm 0 m/s 696 mmHg 87%
    08:00 +1°C° 0 mm 0 m/s 696 mmHg 84%
    09:00 +3°C° 0 mm 0 m/s 697 mmHg 80%
    10:00 +4°C° 0 mm 1 m/s 697 mmHg 78%
    11:00 +5°C° 0 mm 1 m/s 697 mmHg 75%
    12:00 +5°C° 0 mm 2 m/s 697 mmHg 73%
    13:00 +5°C° 0 mm 2 m/s 696 mmHg 74%
    14:00 +5°C° 0 mm 2 m/s 696 mmHg 76%
    15:00 +4°C° 0 mm 2 m/s 696 mmHg 78%
    16:00 +4°C° 0 mm 1 m/s 696 mmHg 83%
    17:00 +2°C° 0 mm 1 m/s 696 mmHg 89%
    18:00 +1°C° 0 mm 1 m/s 696 mmHg 94%
    19:00 +1°C° 0 mm 1 m/s 696 mmHg 94%
    20:00 +1°C° 0 mm 1 m/s 695 mmHg 94%
    21:00 +1°C° 0 mm 1 m/s 695 mmHg 94%
    22:00 0°C° 0 mm 1 m/s 695 mmHg 94%
    23:00 -1°C° 0 mm 0 m/s 695 mmHg 94%

    Mâine, 19 Ianuarie, Joi

    Timp Temperatura Precipitaţii Vânt Presiune Umiditate
    00:00 -1°C° 0 mm 0 m/s 695 mmHg 94%
    01:00 -1°C° 0 mm 0 m/s 695 mmHg 94%
    02:00 -1°C° 0 mm 0 m/s 695 mmHg 94%
    03:00 -1°C° 0 mm 0 m/s 695 mmHg 94%
    04:00 -2°C° 0 mm 0 m/s 695 mmHg 94%
    05:00 -2°C° 0 mm 0 m/s 695 mmHg 94%
    06:00 -2°C° 0 mm 0 m/s 695 mmHg 94%
    07:00 0°C° 0 mm 1 m/s 695 mmHg 92%
    08:00 +1°C° 0 mm 1 m/s 696 mmHg 89%
    09:00 +2°C° 0 mm 1 m/s 696 mmHg 86%
    10:00 +3°C° 0 mm 1 m/s 696 mmHg 83%
    11:00 +4°C° 0 mm 1 m/s 696 mmHg 79%
    12:00 +4°C° 0 mm 2 m/s 696 mmHg 76%
    13:00 +3°C° 0,1 mm 2 m/s 696 mmHg 78%
    14:00 +3°C° 0,1 mm 2 m/s 696 mmHg 80%
    15:00 +3°C° 0,1 mm 2 m/s 696 mmHg 82%
    16:00 +3°C° 0,1 mm 1 m/s 696 mmHg 86%
    17:00 +2°C° 0,1 mm 1 m/s 696 mmHg 91%
    18:00 +1°C° 0,1 mm 1 m/s 696 mmHg 95%
    19:00 +1°C° 0,1 mm 1 m/s 696 mmHg 96%
    20:00 0°C° 0,1 mm 1 m/s 696 mmHg 96%
    21:00 0°C° 0,1 mm 1 m/s 696 mmHg 96%
    22:00 0°C° 0 mm 1 m/s 696 mmHg 96%
    23:00 0°C° 0 mm 1 m/s 696 mmHg 96%

    Poimâine, 20 Ianuarie, Vineri

    Timp Temperatura Precipitaţii Vânt Presiune Umiditate
    00:00 -1°C° 0 mm 1 m/s 696 mmHg 97%
    01:00 -1°C° 0 mm 1 m/s 696 mmHg 96%
    02:00 -2°C° 0 mm 0 m/s 696 mmHg 96%
    03:00 -2°C° 0 mm 0 m/s 696 mmHg 96%
    04:00 -2°C° 0 mm 0 m/s 696 mmHg 95%
    05:00 -3°C° 0 mm 0 m/s 696 mmHg 95%
    06:00 -2°C° 0 mm 1 m/s 696 mmHg 95%
    07:00 -1°C° 0 mm 1 m/s 697 mmHg 91%
    08:00 0°C° 0 mm 1 m/s 697 mmHg 88%
    09:00 +1°C° 0 mm 1 m/s 698 mmHg 84%
    10:00 +2°C° 0,1 mm 1 m/s 697 mmHg 81%
    11:00 +3°C° 0,1 mm 1 m/s 697 mmHg 78%
    12:00 +2°C° 0,1 mm 2 m/s 697 mmHg 75%
    13:00 +2°C° 0,1 mm 2 m/s 697 mmHg 76%
    14:00 +2°C° 0,1 mm 2 m/s 697 mmHg 78%
    15:00 +2°C° 0,1 mm 2 m/s 696 mmHg 79%
    16:00 +2°C° 0,1 mm 1 m/s 696 mmHg 84%
    17:00 +1°C° 0,1 mm 1 m/s 696 mmHg 89%
    18:00 0°C° 0,1 mm 1 m/s 697 mmHg 94%
    19:00 0°C° 0,1 mm 1 m/s 697 mmHg 94%
    20:00 -2°C° 0,1 mm 0 m/s 697 mmHg 94%
    21:00 -2°C° 0,1 mm 0 m/s 697 mmHg 94%
    22:00 -2°C° 0 mm 0 m/s 696 mmHg 94%
    23:00 -3°C° 0 mm 0 m/s 696 mmHg 94%

    21 Ianuarie, Sâmbătă

    Timp Temperatura Precipitaţii Vânt Presiune Umiditate
    00:00 -3°C° 0 mm 0 m/s 696 mmHg 94%
    01:00 -3°C° 0 mm 0 m/s 696 mmHg 94%
    02:00 -4°C° 0 mm 0 m/s 696 mmHg 94%
    03:00 -4°C° 0 mm 0 m/s 696 mmHg 93%
    04:00 -4°C° 0 mm 0 m/s 696 mmHg 93%
    05:00 -4°C° 0 mm 0 m/s 695 mmHg 93%
    06:00 -4°C° 0 mm 0 m/s 695 mmHg 94%
    07:00 -3°C° 0 mm 0 m/s 696 mmHg 88%
    08:00 -1°C° 0 mm 0 m/s 697 mmHg 82%
    09:00 +1°C° 0 mm 0 m/s 697 mmHg 76%
    10:00 +3°C° 0 mm 1 m/s 697 mmHg 71%
    11:00 +4°C° 0 mm 1 m/s 697 mmHg 66%
    12:00 +5°C° 0 mm 1 m/s 697 mmHg 62%
    13:00 +5°C° 0 mm 1 m/s 696 mmHg 63%
    14:00 +4°C° 0 mm 1 m/s 696 mmHg 64%
    15:00 +4°C° 0 mm 1 m/s 695 mmHg 65%
    16:00 +3°C° 0 mm 1 m/s 695 mmHg 72%
    17:00 +1°C° 0 mm 1 m/s 695 mmHg 80%
    18:00 -2°C° 0 mm 0 m/s 694 mmHg 87%
    19:00 -2°C° 0 mm 0 m/s 694 mmHg 88%
    20:00 -3°C° 0 mm 0 m/s 694 mmHg 88%
    21:00 -3°C° 0 mm 0 m/s 694 mmHg 89%
    22:00 -3°C° 0 mm 0 m/s 694 mmHg 87%
    23:00 -2°C° 0 mm 1 m/s 694 mmHg 86%

    22 Ianuarie, Duminică

    Timp Temperatura Precipitaţii Vânt Presiune Umiditate
    00:00 -2°C° 0 mm 1 m/s 694 mmHg 84%
    01:00 -2°C° 0 mm 1 m/s 694 mmHg 83%
    02:00 -2°C° 0 mm 1 m/s 693 mmHg 81%
    03:00 -2°C° 0 mm 1 m/s 693 mmHg 80%
    04:00 -2°C° 0 mm 1 m/s 693 mmHg 79%
    05:00 -3°C° 0 mm 1 m/s 693 mmHg 79%
    06:00 -3°C° 0 mm 1 m/s 693 mmHg 78%
    07:00 -1°C° 0 mm 1 m/s 693 mmHg 74%
    08:00 0°C° 0 mm 1 m/s 694 mmHg 69%
    09:00 +1°C° 0 mm 1 m/s 694 mmHg 65%
    10:00 +2°C° 0 mm 1 m/s 694 mmHg 61%
    11:00 +2°C° 0 mm 2 m/s 693 mmHg 57%
    12:00 +3°C° 0 mm 2 m/s 693 mmHg 54%
    13:00 +3°C° 0 mm 2 m/s 693 mmHg 55%
    14:00 +3°C° 0 mm 2 m/s 693 mmHg 56%
    15:00 +3°C° 0 mm 2 m/s 692 mmHg 58%
    16:00 +2°C° 0 mm 2 m/s 692 mmHg 64%
    17:00 +1°C° 0 mm 1 m/s 693 mmHg 70%
    18:00 0°C° 0 mm 1 m/s 693 mmHg 76%
    19:00 0°C° 0,1 mm 1 m/s 693 mmHg 76%
    20:00 -1°C° 0,1 mm 1 m/s 694 mmHg 76%
    21:00 -1°C° 0,1 mm 1 m/s 694 mmHg 76%
    22:00 -1°C° 0,2 mm 1 m/s 694 mmHg 77%
    23:00 -1°C° 0,2 mm 1 m/s 695 mmHg 79%

    23 Ianuarie, Luni

    Timp Temperatura Precipitaţii Vânt Presiune Umiditate
    00:00 -1°C° 0,2 mm 1 m/s 695 mmHg 80%
    01:00 -2°C° 0,7 mm 1 m/s 695 mmHg 84%
    02:00 -4°C° 0,7 mm 2 m/s 696 mmHg 88%
    03:00 -4°C° 0,7 mm 2 m/s 696 mmHg 92%
    04:00 -5°C° 0,9 mm 2 m/s 697 mmHg 93%
    05:00 -6°C° 0,9 mm 3 m/s 698 mmHg 93%
    06:00 -7°C° 0,9 mm 3 m/s 699 mmHg 94%
    07:00 -6°C° 0,3 mm 2 m/s 700 mmHg 92%
    08:00 -6°C° 0,3 mm 2 m/s 701 mmHg 91%
    09:00 -6°C° 0,3 mm 2 m/s 702 mmHg 89%
    10:00 -5°C° 0,1 mm 2 m/s 702 mmHg 86%
    11:00 -4°C° 0,1 mm 2 m/s 702 mmHg 83%
    12:00 -4°C° 0,1 mm 2 m/s 703 mmHg 80%
    13:00 -4°C° 0,1 mm 2 m/s 703 mmHg 80%
    14:00 -4°C° 0,1 mm 2 m/s 703 mmHg 80%
    15:00 -4°C° 0,1 mm 2 m/s 703 mmHg 80%
    16:00 -5°C° 0 mm 2 m/s 703 mmHg 83%
    17:00 -6°C° 0 mm 1 m/s 703 mmHg 87%
    18:00 -8°C° 0 mm 1 m/s 703 mmHg 90%
    19:00 -8°C° 0 mm 1 m/s 703 mmHg 89%
    20:00 -9°C° 0 mm 1 m/s 703 mmHg 87%
    21:00 -9°C° 0 mm 1 m/s 703 mmHg 86%
    22:00 -9°C° 0 mm 1 m/s 703 mmHg 85%
    23:00 -9°C° 0 mm 1 m/s 703 mmHg 84%
    Arată mai mult